Location: Starlight Observatory
(38.4029°N, 85.8936°W)
Time: 23:43:58
(UTC-04:00)

Amateur Radio Satellites - All Passes

Search period start: 25 June 2017 23:13
Search period end: 26 June 2017 23:13
Location: Starlight Observatory, 38.4029°N, 85.8936°W

Satellite Date Start Highest point End Downlink Frequencies (MHz)
Time Altitude Azimuth
FO-29 25 Jun 23:14:54 23:22:42 61° 100° (E) 23:30:18 435.910
RS-15 25 Jun 23:15:11 23:27:07 58° 309° (NW) 23:39:19 29.354- 29.394
M-CUBED/EXP-1 PRIME 25 Jun 23:19:13 23:22:58 61° 107° (ESE) 23:26:59 437.505
DELFI C3 25 Jun 23:19:52 23:23:12 27° 263° (W) 23:26:35 145.870
YUBILEINY 25 Jun 23:20:21 23:29:09 87° 274° (W) 23:38:04 435.215
PRISM 25 Jun 23:38:21 23:42:27 70° 103° (ESE) 23:46:32 437.425
PCSat 25 Jun 23:38:31 23:42:54 25° 253° (WSW) 23:47:16 145.827
TIGRISAT 25 Jun 23:50:15 23:54:56 87° 102° (ESE) 23:59:28 435.000
BEESAT 2 25 Jun 23:51:01 23:53:53 19° 312° (NW) 23:56:48 435.950
O/OREOS (USA 219) 25 Jun 23:58:16 00:01:01 16° 304° (WNW) 00:03:46 437.305
AIST 2D 26 Jun 00:04:01 00:05:29 12° 92° (E) 00:06:56 435.315
SO-50 26 Jun 00:13:54 00:18:26 70° 58° (ENE) 00:22:58 436.795
ESTCUBE 1 26 Jun 00:14:15 00:18:42 64° 74° (ENE) 00:23:09 437.505/2401.250
VELOX 1 26 Jun 00:16:41 00:19:16 16° 65° (ENE) 00:21:52 145.980
NO-84 26 Jun 00:24:24 00:27:11 17° 335° (NNW) 00:30:04 435.350 FM
DUCHIFAT 1 26 Jun 00:32:51 00:34:08 11° 91° (E) 00:35:24 145.980
UNISAT 6 26 Jun 00:32:56 00:37:01 30° 290° (WNW) 00:40:59 437.425
SPROUT 26 Jun 00:34:29 00:37:58 25° 69° (ENE) 00:41:30 437.525
LO-87 26 Jun 00:36:49 00:40:00 31° 262° (W) 00:43:14 145.935 - 145.965
NANOSAT C BR1 26 Jun 00:40:18 00:42:58 16° 93° (E) 00:45:36 145.865
M-CUBED/EXP-1 PRIME 26 Jun 00:56:47 00:57:01 10° 299° (WNW) 00:57:16 437.505
FO-29 26 Jun 01:00:41 01:07:08 29° 297° (WNW) 01:13:32 435.910
POLYITAN 1 26 Jun 01:17:07 01:21:16 48° 99° (E) 01:25:23 437.675
YUBILEINY 26 Jun 01:22:02 01:27:17 17° 297° (WNW) 01:32:36 435.215
QB50P2 26 Jun 01:27:52 01:32:10 73° 102° (ESE) 01:36:24 145.880/145.840
RS-15 26 Jun 01:34:05 01:43:11 23° 338° (NNW) 01:52:17 29.354- 29.394
AIST 2D 26 Jun 01:35:38 01:38:47 32° 287° (WNW) 01:41:55 435.315
BUGSAT 1 26 Jun 01:40:00 01:43:08 20° 94° (E) 01:46:15 437.445
VELOX 1 26 Jun 01:51:08 01:55:20 45° 261° (W) 01:59:33 145.980
EO-79 26 Jun 01:52:19 01:56:34 64° 285° (WNW) 02:00:45 145.935-145.965
50 SAT 26 Jun 01:54:02 01:57:23 84° 256° (WSW) 02:00:47 437.505
ESTCUBE 1 26 Jun 01:54:48 01:55:52 11° 270° (W) 01:56:56 437.505/2401.250
SO-50 26 Jun 01:56:58 01:58:17 11° 253° (WSW) 01:59:36 436.795
Oscar 19 26 Jun 01:57:38 01:59:43 12° 91° (E) 02:01:48 437.125/150
DUCHIFAT 1 26 Jun 02:05:56 02:10:06 55° 286° (WNW) 02:14:13 145.980
DX 1 26 Jun 02:09:19 02:13:38 90° 299° (WNW) 02:17:59 434.975-435.025
SPROUT 26 Jun 02:10:15 02:13:46 25° 264° (W) 02:17:20 437.525
NANOSAT C BR1 26 Jun 02:14:50 02:18:48 38° 288° (WNW) 02:22:44 145.865
UKube-1 26 Jun 02:25:41 02:29:58 88° 247° (WSW) 02:34:18 .
Gurwin Techsat 1B 26 Jun 02:52:02 02:56:35 28° 96° (E) 03:01:06 435.225
POLYITAN 1 26 Jun 02:54:22 02:56:36 14° 295° (WNW) 02:58:50 437.675
BUGSAT 1 26 Jun 03:14:45 03:18:30 31° 290° (WNW) 03:22:14 437.445
MOZHAYETS 4 26 Jun 03:29:25 03:33:10 25° 68° (ENE) 03:36:55
Oscar 19 26 Jun 03:34:24 03:39:29 69° 286° (WNW) 03:44:34 437.125/150
NO-84 26 Jun 03:44:02 03:45:43 12° 17° (NNE) 03:47:24 435.350 FM
ITUPSAT 1 26 Jun 03:51:38 03:56:24 69° 74° (ENE) 04:01:12 437.325
RS-15 26 Jun 03:53:40 04:02:12 20° 15° (NNE) 04:10:32 29.354- 29.394
BEESAT 26 Jun 04:01:19 04:06:06 88° 76° (ENE) 04:10:55 436.000
CUBESAT XI-V 26 Jun 04:13:22 04:15:30 13° 64° (ENE) 04:17:38 437.345
ITAMSAT 1 26 Jun 04:13:42 04:17:32 20° 94° (E) 04:21:21 435.822/435.867
AO-7 26 Jun 04:21:02 04:28:12 30° 97° (E) 04:35:17 .
Gurwin Techsat 1B 26 Jun 04:31:44 04:36:30 34° 291° (WNW) 04:41:14 435.225
KKS-1 26 Jun 04:59:39 05:03:23 27° 69° (ENE) 05:07:07 437.445
MOZHAYETS 4 26 Jun 05:06:04 05:10:09 30° 264° (W) 05:14:15
NO-84 26 Jun 05:20:17 05:24:23 37° 37° (NE) 05:28:23 435.350 FM
STARS 26 Jun 05:28:15 05:31:43 23° 68° (ENE) 05:35:11 437.465
BEESAT 3 26 Jun 05:32:31 05:34:08 12° 43° (NE) 05:35:45 437.485
ITUPSAT 1 26 Jun 05:33:09 05:34:40 11° 269° (W) 05:36:10 437.325
CUBESAT XI-V 26 Jun 05:47:45 05:52:20 61° 259° (W) 05:56:56 437.345
AO-85 26 Jun 05:49:07 05:52:46 29° 53° (NE) 05:56:37 145.980
ITAMSAT 1 26 Jun 05:52:13 05:57:10 45° 290° (WNW) 06:02:08 435.822/435.867
RS-15 26 Jun 06:07:10 06:18:53 49° 47° (NE) 06:30:00 29.354- 29.394
AO-7 26 Jun 06:13:06 06:21:15 57° 294° (WNW) 06:29:21 .
BEESAT 2 26 Jun 06:31:47 06:34:33 17° 47° (NE) 06:37:17 435.950
KKS-1 26 Jun 06:36:13 06:39:51 25° 264° (W) 06:43:32 437.445
XW-2C 26 Jun 06:47:45 06:48:53 11° 91° (E) 06:50:00 145.795 - 145.815
DOVE 4 26 Jun 06:55:02 06:59:46 43° 98° (E) 07:04:40 437.250
NO-84 26 Jun 06:58:04 07:01:54 31° 234° (SW) 07:05:35 435.350 FM
KAITUO 1B 26 Jun 07:00:10 07:01:38 12° 92° (E) 07:03:06 145.475/437.950
CUTE-I 26 Jun 07:00:25 07:04:09 19° 93° (E) 07:07:51 437.470
STARS 26 Jun 07:04:04 07:07:53 29° 263° (W) 07:11:44 437.465
BEESAT 3 26 Jun 07:08:12 07:12:12 72° 241° (WSW) 07:16:07 437.485
AO-85 26 Jun 07:29:36 07:33:03 25° 247° (WSW) 07:36:42 145.980
NUDT-PHONESAT 26 Jun 07:33:25 07:36:46 32° 97° (E) 07:40:04 437.300
HO-68 26 Jun 07:43:02 07:47:08 16° 91° (E) 07:51:12 435.675
XW-2F 26 Jun 07:50:34 07:54:19 73° 101° (ESE) 07:58:02 145.980 - 146.000
XW-2D 26 Jun 07:54:59 07:58:47 89° 264° (W) 08:02:30 145.860 - 145.880
XW-2B 26 Jun 08:04:02 08:07:48 70° 283° (WNW) 08:11:30 145.730 - 145.750
LilacSat-2 26 Jun 08:04:04 08:07:49 65° 284° (WNW) 08:11:32 437.200
BEESAT 2 26 Jun 08:08:38 08:12:31 44° 244° (WSW) 08:16:20 435.950
AO-7 26 Jun 08:09:26 08:12:12 12° 314° (NW) 08:14:58 .
STRAND 1 26 Jun 08:13:10 08:18:16 72° 74° (ENE) 08:23:25 437.568
XW-2A 26 Jun 08:15:30 08:16:28 11° 92° (E) 08:17:25 145.665 - 145.685
XW-2C 26 Jun 08:19:43 08:23:17 42° 286° (WNW) 08:26:49 145.795 - 145.815
RS-15 26 Jun 08:20:02 08:31:28 53° 250° (WSW) 08:42:20 29.354- 29.394
O/OREOS (USA 219) 26 Jun 08:28:16 08:32:45 77° 69° (ENE) 08:37:12 437.305
KAITUO 1B 26 Jun 08:32:21 08:35:48 37° 287° (WNW) 08:39:13 145.475/437.950
DOVE 4 26 Jun 08:33:28 08:37:09 21° 292° (WNW) 08:40:57 437.250
CUTE-I 26 Jun 08:39:14 08:44:26 51° 288° (WNW) 08:49:37 437.470
SEEDS 26 Jun 08:48:58 08:52:41 30° 97° (E) 08:56:20 437.485
Tancredo 1 26 Jun 08:59:33 09:02:33 67° 321° (NW) 09:05:35 437.200
CUTE 1.7 + AOD 2 26 Jun 09:07:21 09:11:34 85° 101° (E) 09:15:45 437.475
NUDT-PHONESAT 26 Jun 09:08:14 09:10:21 15° 293° (WNW) 09:12:28 437.300
AO-73 26 Jun 09:17:14 09:19:40 14° 91° (E) 09:22:04 145.935
CUBEBUG 2 26 Jun 09:25:29 09:30:11 67° 101° (E) 09:34:43 437.445
ISS 26 Jun 09:26:30 09:29:46 80° 321° (NW) 09:33:03 437.550
FO-29 26 Jun 09:27:03 09:31:35 22° 59° (ENE) 09:36:30 435.910
HO-68 26 Jun 09:28:23 09:35:36 84° 287° (WNW) 09:42:45 435.675
YUBILEINY 26 Jun 09:32:45 09:41:08 44° 75° (ENE) 09:49:22 435.215
AAUSAT CUBESAT 2 26 Jun 09:37:38 09:41:39 51° 100° (E) 09:45:39 437.432
Oscar 11 26 Jun 09:42:45 09:46:04 21° 94° (E) 09:49:21 .
XW-2A 26 Jun 09:46:13 09:49:19 33° 287° (WNW) 09:52:24 145.665 - 145.685
ZACube-1 26 Jun 09:51:17 09:55:30 40° 98° (E) 09:59:33 437.345
UNISAT 6 26 Jun 09:54:11 09:57:23 19° 66° (ENE) 10:00:37 437.425
STRAND 1 26 Jun 09:56:03 09:57:56 12° 270° (W) 09:59:49 437.568
UWE-3 26 Jun 09:57:45 10:02:22 89° 114° (ESE) 10:06:49 435.000/436.395/437.385
M-CUBED/EXP-1 PRIME 26 Jun 10:04:26 10:07:39 54° 70° (ENE) 10:10:51 437.505
SEEDS 26 Jun 10:25:07 10:28:08 20° 292° (WNW) 10:31:09 437.485
PRISM 26 Jun 10:26:01 10:29:46 38° 72° (ENE) 10:33:33 437.425
Tancredo 1 26 Jun 10:37:12 10:38:37 12° 340° (NNW) 10:40:01 437.200
TIGRISAT 26 Jun 10:46:45 10:51:16 62° 75° (ENE) 10:55:54 435.000
AO-73 26 Jun 10:51:55 10:56:09 45° 287° (WNW) 11:00:15 145.935
DELFI C3 26 Jun 10:57:36 11:01:16 37° 98° (E) 11:04:57 145.870
CUBEBUG 2 26 Jun 11:04:14 11:06:08 12° 297° (WNW) 11:08:02 437.445
ISS 26 Jun 11:04:42 11:06:42 15° 339° (NNW) 11:08:42 437.550
FO-29 26 Jun 11:09:58 11:15:52 63° 260° (W) 11:22:39 435.910
AAUSAT CUBESAT 2 26 Jun 11:15:00 11:16:38 12° 295° (WNW) 11:18:16 437.432
HO-68 26 Jun 11:18:20 11:22:14 16° 305° (NW) 11:26:08 435.675
Oscar 11 26 Jun 11:18:26 11:22:12 30° 289° (WNW) 11:25:55 .
ZACube-1 26 Jun 11:28:29 11:31:24 17° 294° (WNW) 11:34:17 437.345
UNISAT 6 26 Jun 11:29:24 11:33:43 41° 262° (W) 11:38:09 437.425
YUBILEINY 26 Jun 11:29:50 11:37:43 38° 274° (W) 11:45:33 435.215
NANOSAT C BR1 26 Jun 11:32:49 11:33:42 11° 63° (ENE) 11:34:33 145.865
EO-88 26 Jun 11:44:44 11:48:23 78° 283° (WNW) 11:51:59 145.990 - 145.960
PRISM 26 Jun 12:02:54 12:05:12 15° 267° (W) 12:07:29 437.425
LO-87 26 Jun 12:05:20 12:08:05 20° 95° (E) 12:10:48 145.935 - 145.965
AIST 2D 26 Jun 12:07:41 12:11:11 62° 76° (ENE) 12:14:42 435.315
POLYITAN 1 26 Jun 12:08:08 12:11:51 30° 70° (ENE) 12:15:35 437.675
ESTCUBE 1 26 Jun 12:09:32 12:12:05 15° 92° (E) 12:14:36 437.505/2401.250
QB50P2 26 Jun 12:18:39 12:22:40 43° 73° (ENE) 12:26:44 145.880/145.840
TIGRISAT 26 Jun 12:26:38 12:28:21 12° 270° (W) 12:30:05 435.000
BUGSAT 1 26 Jun 12:29:42 12:31:17 12° 64° (ENE) 12:32:52 437.445
DELFI C3 26 Jun 12:33:28 12:35:43 15° 293° (WNW) 12:37:58 145.870
PCSat 26 Jun 12:34:29 12:39:42 51° 112° (ESE) 12:44:58 145.827
EO-79 26 Jun 12:42:36 12:46:50 76° 76° (ENE) 12:51:07 145.935-145.965
DUCHIFAT 1 26 Jun 12:55:32 12:59:45 85° 76° (ENE) 13:04:01 145.980
NANOSAT C BR1 26 Jun 13:04:36 13:08:48 66° 259° (WSW) 13:13:03 145.865
Oscar 19 26 Jun 13:12:36 13:15:56 18° 64° (ENE) 13:19:14 437.125/150
LO-87 26 Jun 13:38:32 13:41:24 22° 290° (WNW) 13:44:17 145.935 - 145.965
VELOX 1 26 Jun 13:42:24 13:46:29 35° 98° (E) 13:50:34 145.980
POLYITAN 1 26 Jun 13:44:21 13:47:37 21° 265° (W) 13:50:55 437.675
ESTCUBE 1 26 Jun 13:44:49 13:49:05 46° 288° (WNW) 13:53:22 437.505/2401.250
Tancredo 1 26 Jun 13:50:34 13:52:05 13° 21° (NNE) 13:53:37 437.200
QB50P2 26 Jun 13:56:15 13:58:39 15° 268° (W) 14:01:03 145.880/145.840
SPROUT 26 Jun 13:56:21 14:00:37 58° 100° (E) 14:04:51 437.525
DX 1 26 Jun 13:59:55 14:02:49 17° 94° (E) 14:05:41 434.975-435.025
BUGSAT 1 26 Jun 14:02:04 14:06:07 55° 260° (W) 14:10:14 437.445
JUGNU 26 Jun 14:02:47 14:03:46 10° 171° (S) 14:04:45 437.505
Gurwin Techsat 1B 26 Jun 14:11:30 14:16:23 39° 70° (ENE) 14:21:18 435.225
UKube-1 26 Jun 14:15:11 14:18:00 17° 94° (E) 14:20:47 .
PCSat 26 Jun 14:19:06 14:23:22 23° 310° (NW) 14:27:41 145.827
ISS 26 Jun 14:20:10 14:22:02 14° 20° (NNE) 14:23:55 437.550
SO-50 26 Jun 14:26:57 14:30:58 31° 114° (ESE) 14:34:59 436.795
Oscar 19 26 Jun 14:49:43 14:54:46 55° 259° (W) 14:59:50 437.125/150
50 SAT 26 Jun 14:50:21 14:53:45 65° 284° (WNW) 14:57:07 437.505
AO-7 26 Jun 15:18:23 15:25:50 38° 61° (ENE) 15:33:18 .
VELOX 1 26 Jun 15:19:28 15:22:40 20° 293° (WNW) 15:25:52 145.980
Tancredo 1 26 Jun 15:25:04 15:28:07 73° 39° (NE) 15:31:08 437.200
ITAMSAT 1 26 Jun 15:30:04 15:34:24 28° 67° (ENE) 15:38:47 435.822/435.867
SPROUT 26 Jun 15:34:19 15:35:59 12° 296° (WNW) 15:37:38 437.525
DX 1 26 Jun 15:35:03 15:39:06 38° 289° (WNW) 15:43:09 434.975-435.025
JUGNU 26 Jun 15:49:35 15:51:52 12° 182° (S) 15:54:10 437.505
UKube-1 26 Jun 15:50:07 15:54:08 38° 289° (WNW) 15:58:08 .
Gurwin Techsat 1B 26 Jun 15:52:10 15:56:25 24° 265° (W) 16:00:41 435.225
ITUPSAT 1 26 Jun 15:54:33 15:57:59 19° 94° (E) 16:01:23 437.325
ISS 26 Jun 15:55:44 15:59:01 70° 38° (NE) 16:02:18 437.550
BEESAT 26 Jun 16:03:28 16:07:22 25° 95° (E) 16:11:14 436.000
SO-50 26 Jun 16:07:29 16:11:24 28° 310° (NW) 16:15:18 436.795
MOZHAYETS 4 26 Jun 17:01:48 17:06:22 69° 101° (E) 17:10:54
ITAMSAT 1 26 Jun 17:09:03 17:13:43 34° 263° (W) 17:18:26 435.822/435.867
AO-7 26 Jun 17:10:27 17:18:22 47° 259° (W) 17:26:22 .
ITUPSAT 1 26 Jun 17:31:27 17:35:56 40° 289° (WNW) 17:40:23 437.325
ISS 26 Jun 17:34:14 17:35:04 11° 233° (SW) 17:35:54 437.550
SRMSAT 26 Jun 17:36:45 17:38:52 12° 176° (S) 17:40:59 437.500
BEESAT 26 Jun 17:40:54 17:45:08 32° 291° (WNW) 17:49:20 436.000
CUBESAT XI-V 26 Jun 17:45:48 17:50:01 35° 97° (E) 17:54:14 437.345
DOVE 4 26 Jun 17:59:46 18:03:25 31° 71° (ENE) 18:07:11 437.250
NUDT-PHONESAT 26 Jun 18:12:36 18:14:21 13° 67° (ENE) 18:16:06 437.300
HO-68 26 Jun 18:13:32 18:15:30 11° 51° (NE) 18:17:29 435.675
CUTE-I 26 Jun 18:20:34 18:24:59 27° 67° (ENE) 18:29:25 437.470
KKS-1 26 Jun 18:27:27 18:31:56 67° 102° (ESE) 18:36:23 437.445
XW-2F 26 Jun 18:30:02 18:33:16 27° 71° (ENE) 18:36:31 145.980 - 146.000
XW-2D 26 Jun 18:34:35 18:38:02 33° 72° (ENE) 18:41:31 145.860 - 145.880
MOZHAYETS 4 26 Jun 18:41:21 18:42:54 12° 297° (WNW) 18:44:27
XW-2B 26 Jun 18:43:26 18:47:03 41° 74° (ENE) 18:50:40 145.730 - 145.750
LilacSat-2 26 Jun 18:44:00 18:47:41 45° 74° (ENE) 18:51:24 437.200
STARS 26 Jun 18:54:02 18:58:23 53° 100° (E) 19:02:43 437.465
XW-2C 26 Jun 18:58:45 19:02:34 68° 76° (ENE) 19:06:23 145.795 - 145.815
KAITUO 1B 26 Jun 19:10:03 19:13:49 72° 76° (ENE) 19:17:35 145.475/437.950
CUBESAT XI-V 26 Jun 19:23:43 19:27:08 21° 293° (WNW) 19:30:33 437.345
SRMSAT 26 Jun 19:25:38 19:27:07 11° 187° (S) 19:28:36 437.500
DOVE 4 26 Jun 19:38:14 19:41:12 19° 267° (W) 19:44:14 437.250
SEEDS 26 Jun 19:39:44 19:42:38 18° 68° (ENE) 19:45:30 437.485
NUDT-PHONESAT 26 Jun 19:44:20 19:47:53 39° 262° (W) 19:51:26 437.300
HO-68 26 Jun 19:54:44 20:01:49 63° 70° (ENE) 20:08:55 435.675
CUTE 1.7 + AOD 2 26 Jun 19:58:07 20:02:12 47° 74° (ENE) 20:06:16 437.475
CUTE-I 26 Jun 20:00:00 20:04:50 36° 262° (W) 20:09:44 437.470
XW-2F 26 Jun 20:04:40 20:07:23 18° 266° (W) 20:10:05 145.980 - 146.000
AO-85 26 Jun 20:04:43 20:06:14 12° 109° (ESE) 20:07:44 145.980
KKS-1 26 Jun 20:06:22 20:07:53 12° 298° (WNW) 20:09:25 437.445
XW-2D 26 Jun 20:10:03 20:12:18 15° 267° (W) 20:14:33 145.860 - 145.880
AO-73 26 Jun 20:12:37 20:13:46 11° 63° (ENE) 20:14:55 145.935
XW-2A 26 Jun 20:15:18 20:18:39 52° 75° (ENE) 20:22:01 145.665 - 145.685
XW-2B 26 Jun 20:19:51 20:21:25 12° 268° (W) 20:22:57 145.730 - 145.750
LilacSat-2 26 Jun 20:21:02 20:22:11 11° 269° (W) 20:23:20 437.200
CUBEBUG 2 26 Jun 20:21:29 20:25:50 45° 73° (ENE) 20:30:20 437.445
STRAND 1 26 Jun 20:25:41 20:30:03 28° 96° (E) 20:34:24 437.568
AAUSAT CUBESAT 2 26 Jun 20:26:20 20:29:50 27° 71° (ENE) 20:33:20 437.432
RS-15 26 Jun 20:29:16 20:39:21 33° 103° (ESE) 20:49:36 29.354- 29.394
STARS 26 Jun 20:31:59 20:34:15 14° 296° (WNW) 20:36:31 437.465
Oscar 11 26 Jun 20:36:57 20:39:22 15° 65° (ENE) 20:41:46 .
ZACube-1 26 Jun 20:45:20 20:49:10 27° 69° (ENE) 20:53:03 437.345
UWE-3 26 Jun 20:52:26 20:56:56 58° 74° (ENE) 21:01:31 435.000/436.395/437.385
BEESAT 3 26 Jun 20:56:42 20:59:59 25° 112° (ESE) 21:03:19 437.485
O/OREOS (USA 219) 26 Jun 21:04:02 21:04:33 10° 97° (E) 21:05:04 437.305
SEEDS 26 Jun 21:14:13 21:18:03 34° 263° (W) 21:21:52 437.485
PCSat 26 Jun 21:23:58 21:28:46 31° 53° (NE) 21:33:32 145.827
CUTE 1.7 + AOD 2 26 Jun 21:36:15 21:38:16 13° 269° (W) 21:40:16 437.475
AO-85 26 Jun 21:42:11 21:46:11 52° 303° (WNW) 21:50:03 145.980
DELFI C3 26 Jun 21:42:14 21:44:55 18° 68° (ENE) 21:47:35 145.870
HO-68 26 Jun 21:44:32 21:49:57 23° 267° (W) 21:55:25 435.675
AO-73 26 Jun 21:44:48 21:49:19 74° 258° (WSW) 21:53:55 145.935
BEESAT 2 26 Jun 21:58:03 22:01:47 41° 115° (ESE) 22:05:36 435.950
CUBEBUG 2 26 Jun 21:59:46 22:02:40 16° 269° (W) 22:05:38 437.445
AAUSAT CUBESAT 2 26 Jun 22:02:06 22:05:15 21° 265° (W) 22:08:24 437.432
STRAND 1 26 Jun 22:04:38 22:09:12 33° 291° (WNW) 22:13:44 437.568
Oscar 11 26 Jun 22:10:53 22:15:04 47° 261° (W) 22:19:17 .
NO-84 26 Jun 22:12:40 22:16:27 74° 134° (SE) 22:20:35 435.350 FM
EO-88 26 Jun 22:20:52 22:24:11 32° 72° (ENE) 22:27:29 145.990 - 145.960
FO-29 26 Jun 22:21:02 22:27:19 26° 91° (E) 22:33:27 435.910
ZACube-1 26 Jun 22:21:30 22:25:21 27° 265° (W) 22:29:14 437.345
YUBILEINY 26 Jun 22:31:23 22:39:48 53° 90° (E) 22:48:17 435.215
UWE-3 26 Jun 22:31:45 22:33:44 13° 270° (W) 22:35:44 435.000/436.395/437.385
BEESAT 3 26 Jun 22:34:05 22:37:28 26° 309° (NW) 22:40:53 437.485
RS-15 26 Jun 22:38:43 22:50:50 72° 304° (NW) 23:03:16 29.354- 29.394
O/OREOS (USA 219) 26 Jun 22:38:48 22:43:19 67° 292° (WNW) 22:47:51 437.305
TIGRISAT 26 Jun 22:41:18 22:43:56 15° 91° (E) 22:46:31 435.000
SO-50 26 Jun 22:59:33 23:03:01 21° 47° (NE) 23:06:29 436.795
ESTCUBE 1 26 Jun 23:08:39 23:10:29 12° 63° (ENE) 23:12:19 437.505/2401.250
